Location: Newport
(44.6370°N, 124.0520°W)
Time: 18:27:12
(UTC-07:00)

Envisat - Pass Details

Date: 13 October 2017
Orbit: 764 x 766 km, 98.2° (Epoch: 20 October)

Event Time Altitude Azimuth Distance (km) Brightness Sun altitude
Exits shadow 19:37:12 16° 82° (E) 1,916 4.4 -11.9°
Maximum altitude 19:38:40 18° 61° (ENE) 1,812 4.4 -12.2°
Drops below altitude 10° 19:42:01 10° 19° (NNE) 2,311 5.3 -12.8°
Sets 19:44:59 0° 1° (N) 3,242 6.3 -13.3°
